Weather History for Demopolis Municipal Airport, AL

Change the Weather History Date:

Friday, December 27, 2013

  Actual Average (KMEI) Record (KMEI)
Temperature  
Mean Temperature 40 °F 45 °F  
Max Temperature 54 °F 57 °F 80 °F (1982)
Min Temperature 27 °F 34 °F 15 °F (1925)
Degree Days  
Heating Degree Days 24 20  
Month to date heating degree days 478  
Since 1 July heating degree days 928  
Cooling Degree Days 0 0  
Month to date cooling degree days 0  
Year to date cooling degree days 2029  
Moisture  
Dew Point 30 °F    
Average Humidity 58    
Maximum Humidity 100    
Minimum Humidity 27    
Precipitation  
Precipitation 0.00 in 0.15 in 4.69 in (1942)
Month to date precipitation 4.50  
Year to date precipitation 55.60  
Sea Level Pressure  
Sea Level Pressure 30.39 in    
Wind  
Wind Speed 0 mph (North)    
Max Wind Speed 0 mph    
Max Gust Speed -    
Visibility 10 miles    
Events      
T = Trace of Precipitation, MM = Missing Value Source: NWS Daily Summary

Daily Weather History Graph

Daily Weather History Graph

Search for Another Location

Airport:

Trip Planner

Search our weather history database for the weather conditions in past years. The results will help you decide how hot, cold, wet, or windy it might be!

Date:

Astronomy

Dec. 27, 2013 Rise Set
Actual Time 6:52 AM CST 4:54 PM CST
Civil Twilight 6:24 AM CST 5:21 PM CST
Nautical Twilight 5:54 AM CST 5:51 PM CST
Astronomical Twilight 5:24 AM CST 6:21 PM CST
Moon 1:34 AM CST 12:54 PM CST
Length of Visible Light 10h 56m
Length of Day
10h 01m
Waning Crescent, 28% of the Moon is Illuminated
Dec 27
Waning Crescent
Jan 1
New
Jan 7
First Quarter
Jan 15
Full
Jan 23
Last Quarter

Hourly Weather History & Observations

Time (CST) Temp. Dew Point Humidity Pressure Visibility Wind Dir Wind Speed Gust Speed Precip Events Conditions
12:15 AM 32.0 °F - N/A% 30.36 in 10.0 mi Calm Calm - N/A   Clear
12:35 AM 31.8 °F - N/A% 30.35 in 10.0 mi Calm Calm - N/A   Clear
12:55 AM 32.2 °F - N/A% 30.35 in 10.0 mi Calm Calm - N/A   Clear
1:15 AM 30.7 °F - N/A% 30.36 in 10.0 mi Calm Calm - N/A   Clear
1:35 AM 30.4 °F - N/A% 30.37 in 7.0 mi Calm Calm - N/A   Clear
1:55 AM 30.2 °F - N/A% 30.37 in 10.0 mi Calm Calm - N/A   Clear
2:15 AM 29.8 °F - N/A% 30.37 in 7.0 mi Calm Calm - N/A   Clear
2:35 AM 29.7 °F - N/A% 30.38 in 7.0 mi Calm Calm - N/A   Clear
2:55 AM 29.8 °F - N/A% 30.38 in 7.0 mi Calm Calm - N/A   Clear
3:15 AM 29.3 °F - N/A% 30.39 in 7.0 mi Calm Calm - N/A   Clear
3:35 AM 29.1 °F - N/A% 30.39 in 7.0 mi Calm Calm - N/A   Clear
3:55 AM 29.1 °F - N/A% 30.38 in 10.0 mi Calm Calm - N/A   Clear
4:15 AM 28.4 °F - N/A% 30.39 in 10.0 mi Calm Calm - N/A   Clear
4:35 AM 28.2 °F - N/A% 30.39 in 10.0 mi Calm Calm - N/A   Clear
4:55 AM 27.9 °F - N/A% 30.40 in 10.0 mi Calm Calm - N/A   Clear
5:15 AM 28.4 °F - N/A% 30.41 in 10.0 mi Calm Calm - N/A   Clear
5:35 AM 29.3 °F - N/A% 30.41 in 10.0 mi Calm Calm - N/A   Clear
5:55 AM 29.1 °F - N/A% 30.42 in 10.0 mi Calm Calm - N/A   Clear
6:15 AM 28.9 °F - N/A% 30.43 in 10.0 mi Calm Calm - N/A   Clear
6:35 AM 29.3 °F - N/A% 30.42 in 10.0 mi Calm Calm - N/A   Clear
6:55 AM 29.8 °F - N/A% 30.43 in 10.0 mi Calm Calm - N/A   Clear
7:15 AM 30.4 °F - N/A% 30.43 in 10.0 mi Calm Calm - N/A   Clear
7:35 AM 30.9 °F - N/A% 30.44 in 10.0 mi Calm Calm - N/A   Clear
7:55 AM 32.0 °F - N/A% 30.44 in 10.0 mi Calm Calm - N/A   Clear
8:15 AM 32.9 °F - N/A% 30.44 in 10.0 mi Calm Calm - N/A   Clear
8:35 AM 34.7 °F 34.7 °F 100% 30.44 in 10.0 mi Calm Calm - N/A   Clear
8:55 AM 36.0 °F 36.0 °F 100% 30.46 in 10.0 mi Calm Calm - N/A   Clear
9:15 AM 38.8 °F 38.1 °F 97% 30.46 in 10.0 mi Calm Calm - N/A   Clear
9:35 AM 41.0 °F 32.4 °F 71% 30.45 in 10.0 mi Calm Calm - N/A   Clear
9:55 AM 43.0 °F 32.0 °F 65% 30.46 in 10.0 mi Calm Calm - N/A   Clear
10:15 AM 46.2 °F 32.2 °F 58% 30.46 in 10.0 mi Calm Calm - N/A   Clear
10:35 AM 47.1 °F 31.3 °F 54% 30.45 in 10.0 mi Calm Calm - N/A   Clear
10:55 AM 48.6 °F 30.7 °F 50% 30.43 in 10.0 mi Calm Calm - N/A   Clear
11:15 AM 50.2 °F 28.8 °F 44% 30.43 in 10.0 mi Calm Calm - N/A   Clear
11:35 AM 50.4 °F 29.1 °F 44% 30.42 in 10.0 mi Calm Calm - N/A   Clear
11:55 AM 51.1 °F 27.5 °F 40% 30.41 in 10.0 mi Calm Calm - N/A   Clear
12:15 PM 52.0 °F 25.5 °F 36% 30.41 in 10.0 mi Calm Calm - N/A   Clear
12:35 PM 53.2 °F 25.2 °F 34% 30.39 in 10.0 mi Calm Calm - N/A   Clear
12:55 PM 53.4 °F 23.9 °F 32% 30.38 in 10.0 mi Calm Calm - N/A   Clear
1:15 PM 53.1 °F 23.0 °F 31% 30.36 in 10.0 mi Calm Calm - N/A   Clear
1:35 PM 54.1 °F 21.9 °F 29% 30.36 in 10.0 mi Calm Calm - N/A   Clear
1:55 PM 54.5 °F 22.1 °F 28% 30.36 in 10.0 mi Calm Calm - N/A   Clear
2:15 PM 54.5 °F 22.3 °F 29% 30.35 in 10.0 mi Calm Calm - N/A   Clear
2:35 PM 54.7 °F 21.7 °F 28% 30.35 in 10.0 mi Calm Calm - N/A   Clear
2:55 PM 54.0 °F 20.5 °F 27% 30.35 in 10.0 mi Calm Calm - N/A   Clear
3:15 PM 54.0 °F 22.5 °F 29% 30.35 in 10.0 mi Calm Calm - N/A   Clear
3:35 PM 53.1 °F 19.2 °F 27% 30.35 in 10.0 mi Calm Calm - N/A   Clear
3:55 PM 52.7 °F 20.7 °F 29% 30.36 in 10.0 mi Calm Calm - N/A   Clear
4:15 PM 51.4 °F 22.3 °F 32% 30.36 in 10.0 mi Calm Calm - N/A   Clear
4:35 PM 50.0 °F 25.5 °F 39% 30.36 in 10.0 mi Calm Calm - N/A   Clear
4:55 PM 46.6 °F 30.0 °F 53% 30.36 in 10.0 mi Calm Calm - N/A   Clear
5:15 PM 44.1 °F 31.8 °F 62% 30.37 in 10.0 mi Calm Calm - N/A   Clear
5:35 PM 42.8 °F 32.9 °F 68% 30.37 in 10.0 mi Calm Calm - N/A   Clear
5:55 PM 43.3 °F 31.5 °F 63% 30.37 in 10.0 mi Calm Calm - N/A   Clear
6:15 PM 42.3 °F 34.3 °F 74% 30.37 in 10.0 mi Calm Calm - N/A   Clear
6:35 PM 43.2 °F 32.2 °F 65% 30.37 in 10.0 mi Calm Calm - N/A   Clear
6:55 PM 41.9 °F 34.5 °F 75% 30.37 in 10.0 mi Calm Calm - N/A   Clear
7:15 PM 41.9 °F 33.8 °F 73% 30.38 in 10.0 mi Calm Calm - N/A   Clear
7:35 PM 41.0 °F 34.2 °F 77% 30.38 in 10.0 mi Calm Calm - N/A   Clear
7:55 PM 41.9 °F 32.7 °F 70% 30.38 in 10.0 mi Calm Calm - N/A   Clear
8:15 PM 40.6 °F 33.1 °F 74% 30.38 in 10.0 mi Calm Calm - N/A   Clear
8:35 PM 40.6 °F 33.8 °F 77% 30.37 in 10.0 mi Calm Calm - N/A   Clear
8:55 PM 40.1 °F 34.5 °F 80% 30.37 in 10.0 mi Calm Calm - N/A   Clear
9:15 PM 40.3 °F 33.8 °F 78% 30.37 in 10.0 mi Calm Calm - N/A   Clear
9:35 PM 40.5 °F 35.6 °F 83% 30.36 in 10.0 mi Calm Calm - N/A   Clear
9:55 PM 41.0 °F 34.9 °F 79% 30.35 in 10.0 mi Calm Calm - N/A   Clear
10:15 PM 41.9 °F 32.2 °F 68% 30.35 in 10.0 mi Calm Calm - N/A   Clear
10:35 PM 43.5 °F 30.7 °F 61% 30.35 in 10.0 mi Calm Calm - N/A   Clear
10:55 PM 41.5 °F 32.2 °F 69% 30.35 in 10.0 mi Calm Calm - N/A   Clear
11:15 PM 40.1 °F 34.2 °F 79% 30.36 in 10.0 mi Calm Calm - N/A   Clear
11:35 PM 41.9 °F 31.8 °F 67% 30.33 in 10.0 mi Calm Calm - N/A   Clear
11:55 PM 43.0 °F 32.0 °F 65% 30.34 in 10.0 mi Calm Calm - N/A   Clear